Location: Bothwell
(41.7170°N, 112.2589°W)
Time: 01:46:59
(UTC+00:00)

STARLINK-37348 - Pass Details

Date: 19 April 2026
Orbit: 263 x 264 km, 97.3° (Epoch: 18 April)

Event Time Altitude Azimuth Distance (km) Brightness Sun altitude
Rises 04:06:03 0° 11° (NNE) 1,899 5.7 -19.7°
Reaches altitude 10° 04:07:53 10° 12° (NNE) 1,084 4.4 -19.9°
Enters shadow 04:08:00 11° 12° (NNE) 1,026 4.3 -20.0°
